Retour au catalogue

STARLINK-4137

ActifCommunicationsVLEO
NORAD 53031·PAYLOAD·🇺🇸 United States

Lancé Jul 7, 2022 depuis Cape Canaveral Space Force Station

Loading…

Prochains Passages (prochaines 24 heures)

TLE

FraisSource: CelesTrak SupGP

Époque: Sep 14, 2026, 22:15 UTC

1 53031C 22076AX  26257.92756944  .00103410  00000+0  29561-2 0  2577
2 53031  53.1575 296.1656 0001116  89.8230 277.5458 15.35372360    18

Suivez STARLINK-4137 en temps réel avec AllMySat

Download on the App Store